Regional Weather Roundup
Issued by NWS

Home | Current Version | Previous Version | Graphics & Text | Print | Product List | Glossary On
Versions: 1 2 3 4 5 6 7 8 9 10 11 12 13 14 15 16 17 18 19 20 21 22 23 24 25 26 27 28 29 30 31 32 33 34 35 36 37 38 39 40 41 42 43 44 45 46 47 48 49 50
140
ASUS43 KLOT 260303
RWRIL

ILLINOIS REGIONAL WEATHER ROUNDUP
NATIONAL WEATHER SERVICE CHICAGO/ROMEOVILLE IL
1000 PM CDT MON JUL 25 2016

NOTE: "FAIR" INDICATES FEW OR NO CLOUDS BELOW 12,000 FEET WITH NO
SIGNIFICANT WEATHER AND/OR OBSTRUCTIONS TO VISIBILITY.

* THESE STATIONS ARE NOT UNDER NWS QUALITY CONTROL. THEY ALSO MAY NOT
  REPORT WEATHER SUCH AS PRECIPITATION OR FOG.

ILZ001-002-007-009-015-016-024-260400-
NORTHWEST ILLINOIS

CITY           SKY/WX    TMP DP  RH WIND       PRES   REMARKS
MOLINE         CLOUDY    72  66  81 CALM      30.03R
STERLING*      CLEAR     72  67  84 CALM      30.03R
SAVANNA*       CLEAR     71  69  90 CALM      30.03R
$$

ILZ003-004-008-010-011-017-018-260400-
NORTH CENTRAL ILLINOIS

CITY           SKY/WX    TMP DP  RH WIND       PRES   REMARKS
ROCKFORD       PTCLDY    79  63  57 NW6       30.04R HX  80
FREEPORT*      CLEAR     67  64  90 CALM      30.06R
ROCHELLE*      PTCLDY    71  68  90 CALM      30.04R
DE KALB*       CLOUDY    73  68  84 CALM      30.04S
$$

ILZ005-006-012>014-019>023-260400-
NORTHEAST ILLINOIS

CITY           SKY/WX    TMP DP  RH WIND       PRES   REMARKS
CHICAGO-OHARE  CLOUDY    77  64  64 CALM      30.01R
CHICAGO-MIDWAY CLOUDY    80  61  52 E3        30.01R HX  81
AURORA         CLOUDY    73  70  90 W5        30.02R
LANSING*       MOCLDY    76  63  65 E3        30.01S
WAUKEGAN       CLEAR     69  63  81 CALM      30.01R
DUPAGE AIRPORT CLOUDY    75  64  68 NE6       30.02R
KANKAKEE*      MOCLDY    74  71  93 CALM      30.02S
WHEELING       CLOUDY    75  65  70 E3        30.03R
MORRIS*        PTCLDY    73  70  88 CALM      30.01R
NORTHERLY ISL    N/A     72  66  81 CALM        N/A
$$

LMZ740>746-260400-
SOUTHERN LAKE MICHIGAN

STATION/POSITION SKY/WX   TEMP    WIND        PRES    VSBY  WAVE
                          AIR SEA DIR/SP/G                  HT/PER
                          (F)     (DEG/KT/KT) (MB)    (MI)  (FT/S)
SOUTHERN BUOY              75 74  180/  6/  6 1015.3          0
WILMETTE HARBOR            72 71  100/  2/  4   N/A           1
HARRISON CRIB              76     150/  4/  4   N/A
BURNHAM HARBOR             72        CALM       N/A
CALUMET HARBOR             76     100/  4/  5   N/A
BURNS HARBOR               78      CALM  /  7 1016.3R
MICHIGAN CITY              76      40/  5/  5   N/A
MICHIGAN CITY 6N           76 75   60/  4/  6   N/A           1
ST. JOSEPH                 78 77   40/  4/  6 1015.5R         1/ 4
$$

ILZ025>027-034>036-040-047-049-050-058-095>099-260400-
WEST-CENTRAL ILLINOIS

CITY           SKY/WX    TMP DP  RH WIND       PRES   REMARKS
QUINCY         PTCLDY    75  68  78 N3        30.04R
MACOMB*        MOCLDY    70  69  95 CALM      30.05S
JACKSONVILLE*  CLEAR     72  70  95 CALM      30.02S
PITTSFIELD*    CLEAR     74  72  94 CALM      30.04S
$$

ILZ028>032-037-038-041>044-048-051>054-059>061-260400-
CENTRAL ILLINOIS

CITY           SKY/WX    TMP DP  RH WIND       PRES   REMARKS
DECATUR        PTCLDY    76  72  87 N6        30.02R
PEORIA         PTCLDY    74  71  91 CALM      30.02S
LACON*         MOCLDY    71  68  90 CALM      30.01S
LINCOLN*       PTCLDY    74  73  96 CALM      30.02R
SPRINGFIELD    CLOUDY    76  72  87 N3        30.02R
TAYLORVILLE    PTCLDY    74  74  99 MISG      30.02R
$$

ILZ033-039-045-046-055>057-062-063-260400-
EAST-CENTRAL ILLINOIS

CITY           SKY/WX    TMP DP  RH WIND       PRES   REMARKS
CHAMPAIGN      MOCLDY    74  69  85 N6        30.03R
RANTOUL*       PTCLDY    79  72  78 N5        30.03R HX  82
MATTOON        CLOUDY    76  73  91 CALM      30.01R
PARIS*         MOCLDY    74  74 100 CALM      30.02R
$$

ILZ079-100>102-260400-
SOUTHWEST ILLINOIS

CITY           SKY/WX    TMP DP  RH WIND       PRES   REMARKS
ALTON          MOCLDY    77  73  88 NW6       30.01S
BELLEVILLE     MOCLDY    79  77  94 CALM      29.99R HX  83
CAHOKIA*       CLOUDY    80  75  84 CALM      30.00R HX  85
SPARTA*        MOCLDY    79  77  92 CALM      30.01R HX  84
$$

ILZ064>066-069>071-074>076-080>082-084>086-088>090-092>094-260400-
SOUTH-CENTRAL ILLINOIS

CITY           SKY/WX    TMP DP  RH WIND       PRES   REMARKS
CARBONDALE     CLEAR     77  74  90 CALM      29.99R
CAIRO*         PTCLDY    75  75 100 CALM      30.00R FOG
EFFINGHAM*     CLOUDY    79  75  89 CALM      30.02R HX  83
MARION         PTCLDY    77  77 100 CALM      30.00R FOG
MT. VERNON     MOCLDY    75  72  88 CALM      30.00R
CENTRALIA*     MOCLDY    78  78 100 CALM      30.00R FOG     HX  81
SALEM*         PTCLDY    79  76  92 CALM      30.01R HX  83
METROPOLIS*    CLOUDY    76  75  96 CALM      29.99S
$$

ILZ067-068-072-073-078-083-087-091-260400-
SOUTHEAST ILLINOIS

CITY           SKY/WX    TMP DP  RH WIND       PRES   REMARKS
LAWRENCEVILLE  CLOUDY    78  77  96 CALM      30.00R HX  81
FLORA*         CLOUDY    78  77  95 CALM      30.01R HX  81
FAIRFIELD*     PTCLDY    75  75 100 CALM      29.99R
HARRISBURG*    CLOUDY    74  74 100 CALM      30.00R
ROBINSON*      CLOUDY    77  76  97 CALM      30.01R
CARMI*         CLOUDY    75  75 100 CALM      29.99S FOG
$$

ABBREVIATIONS USED IN REMARKS
   TC - TEMPERATURE IN CELSIUS
  WCI - WIND CHILL INDEX
   HX - HEAT INDEX
  VSB - VISIBILITY
$$





USA.gov is the U.S. government's official web portal to all federal, state and local government web resources and services.